Location: Lewisville
(33.0462°N, 96.9942°W)
Time: 09:37:37
(UTC-06:00)

ISS - Pass Details

Date: 11 March 2020
Orbit: 417 x 423 km, 51.6° (Epoch: 27 November)

Event Time Altitude Azimuth Distance (km) Brightness Sun altitude
Exits shadow 07:11:11 - 254° (WSW) 1,571 -1.5 -7.5°
Drops below altitude 10° 07:11:56 10° 242° (WSW) 1,504 -1.5 -7.3°
Maximum altitude 07:12:20 10° 235° (SW) 1,495 -1.4 -7.2°
Sets 07:16:38 0° 182° (S) 2,364 0.0 -6.3°
